Preview of NWS' New Version of Forecast
This preview is not operational and should not be used for support decisions.

Regional Weather Roundup (RWR)

Issued by National Weather Service (NWS)

                            
000
ASUS43 KTOP 191659
RWRKS 

WEATHER ROUNDUP FOR KANSAS
NATIONAL WEATHER SERVICE GOODLAND KS
1200 PM CDT MON AUG 19 2019

NOTE:  "FAIR" INDICATES FEW OR NO CLOUDS BELOW 12,000 FEET WITH NO
SIGNIFICANT WEATHER AND/OR OBSTRUCTIONS TO VISIBILITY.

KSZ001>006-013>018-027>032-041>047-191800-
NORTHWEST KANSAS
  
CITY           SKY/WX    TMP DP  RH WIND       PRES   REMARKS
GOODLAND       MOSUNNY   78  70  76 S6        30.02S                  
HAYS           SUNNY     84  75  74 SE9       29.97R                  
RUSSELL        SUNNY     85  75  72 SE12      29.97S                  
$$

KSZ061>065-074>080-084>089-191800-
SOUTHWEST KANSAS
  
CITY           SKY/WX    TMP DP  RH WIND       PRES   REMARKS
DODGE CITY     SUNNY     91  66  43 S14       30.01S                  
GARDEN CITY    SUNNY     89  65  44 SE7       30.00S                  
GREAT BEND     SUNNY     88  74  63 S10       29.98F HX  96           
LIBERAL        SUNNY     90  65  43 SW7       30.01F                  
$$

KSZ066>073-081>083-090>101-191800-
SOUTHEAST KANSAS
  
CITY           SKY/WX    TMP DP  RH WIND       PRES   REMARKS
CHANUTE        SUNNY     91  76  61 S9        30.00F HX 103           
COFFEYVILLE    SUNNY     88  76  67 S9        29.98F HX  99           
HUTCHINSON     SUNNY     90  73  57 S9        29.98S HX  98           
MEDICINE LODGE   N/A     91  69  48 S8        29.96F HX  96           
NEWTON         SUNNY     87  75  67 S7        29.99F HX  96           
PARSONS        SUNNY     89  78  70 S9        30.01S HX 103           
WICHITA INTL   MOSUNNY   90  73  57 S10       29.97S HX  98           
WICHITA JABRA  SUNNY     88  74  63 S7        29.98S HX  96           
WINFIELD       SUNNY     89  74  60 S8        29.99S HX  98           
$$

KSZ007>012-019>026-033>040-048>060-102>105-191800-
NORTHEAST KANSAS
  
CITY           SKY/WX    TMP DP  RH WIND       PRES   REMARKS
CONCORDIA      SUNNY     85  76  74 SE10      29.98S                  
EMPORIA        SUNNY     88  76  67 SE8       29.99S HX  99           
LAWRENCE       SUNNY     90  76  63 SE8       29.99F HX 101           
MANHATTAN      SUNNY     87  76  69 SE6       29.98F HX  97           
OLATHE IND     SUNNY     87  74  64 S9        30.01F HX  95           
OLATHE EXE     SUNNY     85  76  74 S8        30.01F                  
SALINA         SUNNY     87  75  67 SE6       29.97F HX  96           
TOPEKA BILLARD SUNNY     87  75  67 VRB5      29.98F HX  96           
TOPEKA FORBES  SUNNY     90  75  61 MISG      29.99F HX 100           
$$